Flag for U.S.A. Weather past 2 weeks in Buffalo, New York, U.S.A.

Now
51 °F

Clear.


Feels Like: 49 °F
Forecast: 49 / 70 °F
Wind: 7 mph from Southwest

Location: Greater Buffalo International Airport

Current Time: May 24, 2015 at 2:30:11 AM

Latest Report: May 24, 2015 at 1:54 AM


Visibility: 10 mi

Pressure: 30.29 "Hg

Humidity: 41%

Dew point: 28 °F

Location of BuffaloLocation

Historic Weather in Buffalo — Graph

°F

Buffalo temperature yesterday

Maximum temperature yesterday: 62 °F (at 5:54 PM)
Minimum temperature yesterday: 34 °F (at 5:54 AM)
Average temperature yesterday: 51 °F

Past Weeks' High & Low Weather Summary

 TemperatureHumidityPressure
High89 °F (May 9, 3:54 PM)96% (May 19, 5:54 AM)30.49 "Hg (May 19, 5:54 AM)
Low34 °F (May 23, 5:54 AM)20% (May 23, 5:54 PM)29.79 "Hg (May 12, 1:54 AM)
Average60 °F64%30.09 "Hg
* Reported May 9 12:54 AM — May 24 12:54 AM, Buffalo, Weather by CustomWeather, © 2015

Note: Actual official high and low records may vary slightly from our data, if they occured in-between our weather recording intervals... More about our weather records

Advertising

Buffalo weather history for previous 24 hours

 ConditionsComfort  
Time TempWeatherWind HumidityBarometerVisibility
12:54 AM
Sun, May 24
51 °FPassing clouds.7 mph44%30.29 "Hg10 mi
11:54 PM
Sat, May 23
53 °FPassing clouds.8 mph41%30.30 "Hg10 mi
10:54 PM53 °FPassing clouds.7 mph51%30.30 "Hg10 mi
9:54 PM55 °FPassing clouds.7 mph40%30.30 "Hg10 mi
8:54 PM57 °FPassing clouds.9 mph28%30.30 "Hg10 mi
7:54 PM60 °FPassing clouds.12 mph21%30.31 "Hg10 mi
6:54 PM62 °FPassing clouds.12 mph23%30.32 "Hg10 mi
5:54 PM62 °FPassing clouds.14 mph20%30.35 "Hg10 mi
4:54 PM61 °FPassing clouds.17 mph27%30.37 "Hg10 mi
3:54 PM61 °FScattered clouds.20 mph26%30.39 "Hg10 mi
2:54 PM60 °FScattered clouds.17 mph28%30.40 "Hg10 mi
1:54 PM60 °FPassing clouds.16 mph27%30.41 "Hg10 mi
12:54 PM57 °FPassing clouds.15 mph27%30.42 "Hg10 mi
11:54 AM56 °FSunny.13 mph28%30.44 "Hg10 mi
10:54 AM54 °FSunny.14 mph33%30.45 "Hg10 mi
9:54 AM52 °FSunny.13 mph34%30.45 "Hg10 mi
8:54 AM48 °FPassing clouds.10 mph43%30.44 "Hg10 mi
7:54 AM41 °FPassing clouds.7 mph62%30.42 "Hg10 mi
6:54 AM36 °FSunny.5 mph75%30.40 "Hg10 mi
5:54 AM34 °FClear.5 mph79%30.39 "Hg10 mi
4:54 AM35 °FClear.5 mph75%30.38 "Hg10 mi
3:54 AM37 °FPassing clouds.3 mph73%30.37 "Hg10 mi
2:54 AM38 °FPassing clouds.5 mph68%30.36 "Hg10 mi
Weather by CustomWeather, © 2015

See weather overviewHow to use our weather pages